Location: Newark
(45.5167°N, 11.1667°E)
Time: 17:45:51
(UTC+00:00)

Transit 2A Rocket - Visible Passes

Search period start: 11 December 2019 00:00
Search period end: 21 December 2019 00:00
Orbit: 594 x 909 km, 66.7° (Epoch: 11 December)

Date Brightness Start Highest point End Pass type
(mag) Time Alt. Az. Time Alt. Az. Time Alt. Az.
11 Dec 7.0 17:18:22 10° WNW 17:20:59 15° NW 17:23:33 10° N visible
12 Dec 6.5 16:34:34 10° W 16:38:07 23° NW 16:41:36 10° N visible
14 Dec 7.0 16:54:32 10° NW 16:56:10 12° NNW 16:57:47 10° NNW visible
15 Dec 6.8 16:10:15 10° W 16:13:14 17° NW 16:16:09 10° N visible
